When you browse on this site, cookies collect data to enhance your experience and personalize the content and advertising you see.
Visit our Privacy Policy to learn more. By continuing to use the site, you agree to this use of cookies and data.
  • In United Kingdom
  • List of Countries
  • For 7 days
  • Water Temperature
  • Satellite Maps
  • Weather Map
  • Weather Widgets
  • user-avatar
    Login

    Hourly Weather Emona

    Today, 19 July, Friday

    Time Temperature Precipitation Wind Pressure Humidity
    00:00 +21°C° 0 mm 1 mps 760 mmHg 75%
    01:00 +20°C° 0 mm 1 mps 760 mmHg 75%
    02:00 +18°C° 0 mm 0 mps 760 mmHg 76%
    03:00 +18°C° 0 mm 0 mps 760 mmHg 77%
    04:00 +18°C° 0 mm 0 mps 760 mmHg 79%
    05:00 +18°C° 0 mm 0 mps 760 mmHg 81%
    06:00 +20°C° 0 mm 0 mps 761 mmHg 74%
    07:00 +22°C° 0 mm 0 mps 761 mmHg 67%
    08:00 +26°C° 0 mm 1 mps 761 mmHg 61%
    09:00 +27°C° 0 mm 2 mps 761 mmHg 55%
    10:00 +29°C° 0 mm 3 mps 761 mmHg 49%
    11:00 +30°C° 0 mm 4 mps 761 mmHg 44%
    12:00 +30°C° 0 mm 4 mps 761 mmHg 43%
    13:00 +30°C° 0 mm 4 mps 761 mmHg 42%
    14:00 +32°C° 0 mm 5 mps 761 mmHg 41%
    15:00 +30°C° 0 mm 5 mps 761 mmHg 43%
    16:00 +29°C° 0 mm 5 mps 761 mmHg 45%
    17:00 +28°C° 0 mm 5 mps 761 mmHg 48%
    18:00 +26°C° 0 mm 4 mps 761 mmHg 57%
    19:00 +24°C° 0 mm 3 mps 761 mmHg 66%
    20:00 +21°C° 0 mm 3 mps 761 mmHg 75%
    21:00 +21°C° 0 mm 2 mps 762 mmHg 77%
    22:00 +20°C° 0 mm 2 mps 762 mmHg 80%
    23:00 +20°C° 0 mm 1 mps 762 mmHg 82%

    Tomorrow, 20 July, Saturday

    Time Temperature Precipitation Wind Pressure Humidity
    00:00 +20°C° 0 mm 1 mps 762 mmHg 82%
    01:00 +20°C° 0 mm 1 mps 762 mmHg 82%
    02:00 +17°C° 0 mm 0 mps 762 mmHg 81%
    03:00 +19°C° 0 mm 1 mps 762 mmHg 81%
    04:00 +19°C° 0 mm 1 mps 762 mmHg 81%
    05:00 +19°C° 0 mm 1 mps 762 mmHg 80%
    06:00 +21°C° 0 mm 1 mps 762 mmHg 73%
    07:00 +24°C° 0 mm 1 mps 763 mmHg 65%
    08:00 +26°C° 0 mm 1 mps 763 mmHg 57%
    09:00 +27°C° 0 mm 2 mps 763 mmHg 52%
    10:00 +29°C° 0 mm 3 mps 763 mmHg 47%
    11:00 +30°C° 0 mm 4 mps 763 mmHg 42%
    12:00 +30°C° 0 mm 4 mps 763 mmHg 42%
    13:00 +32°C° 0 mm 5 mps 763 mmHg 41%
    14:00 +32°C° 0 mm 5 mps 763 mmHg 40%
    15:00 +30°C° 0 mm 5 mps 763 mmHg 42%
    16:00 +30°C° 0 mm 5 mps 763 mmHg 45%
    17:00 +29°C° 0 mm 5 mps 762 mmHg 47%
    18:00 +27°C° 0 mm 4 mps 763 mmHg 56%
    19:00 +25°C° 0 mm 3 mps 763 mmHg 66%
    20:00 +21°C° 0 mm 3 mps 763 mmHg 75%
    21:00 +21°C° 0 mm 2 mps 764 mmHg 78%
    22:00 +21°C° 0 mm 1 mps 764 mmHg 80%
    23:00 +19°C° 0 mm 0 mps 764 mmHg 83%

    Day after tomorrow, 21 July, Sunday

    Time Temperature Precipitation Wind Pressure Humidity
    00:00 +20°C° 0 mm 1 mps 764 mmHg 82%
    01:00 +20°C° 0 mm 1 mps 763 mmHg 82%
    02:00 +20°C° 0 mm 1 mps 763 mmHg 82%
    03:00 +20°C° 0 mm 1 mps 763 mmHg 81%
    04:00 +20°C° 0 mm 1 mps 763 mmHg 81%
    05:00 +19°C° 0 mm 1 mps 763 mmHg 80%
    06:00 +22°C° 0 mm 1 mps 763 mmHg 71%
    07:00 +24°C° 0 mm 1 mps 763 mmHg 62%
    08:00 +27°C° 0 mm 1 mps 763 mmHg 53%
    09:00 +28°C° 0 mm 1 mps 764 mmHg 47%
    10:00 +30°C° 0 mm 2 mps 764 mmHg 40%
    11:00 +31°C° 0 mm 2 mps 764 mmHg 33%
    12:00 +33°C° 0 mm 3 mps 763 mmHg 33%
    13:00 +33°C° 0 mm 3 mps 763 mmHg 32%
    14:00 +34°C° 0 mm 4 mps 763 mmHg 31%
    15:00 +33°C° 0 mm 4 mps 763 mmHg 33%
    16:00 +33°C° 0 mm 4 mps 763 mmHg 35%
    17:00 +32°C° 0 mm 4 mps 763 mmHg 37%
    18:00 +28°C° 0 mm 3 mps 763 mmHg 47%
    19:00 +26°C° 0 mm 3 mps 763 mmHg 58%
    20:00 +24°C° 0 mm 2 mps 763 mmHg 68%
    21:00 +23°C° 0 mm 1 mps 763 mmHg 69%
    22:00 +22°C° 0 mm 1 mps 763 mmHg 70%
    23:00 +20°C° 0 mm 0 mps 763 mmHg 70%

    22 July, Monday

    Time Temperature Precipitation Wind Pressure Humidity
    00:00 +20°C° 0 mm 0 mps 763 mmHg 69%
    01:00 +21°C° 0 mm 1 mps 763 mmHg 67%
    02:00 +21°C° 0 mm 1 mps 763 mmHg 66%
    03:00 +21°C° 0 mm 1 mps 763 mmHg 65%
    04:00 +21°C° 0 mm 1 mps 763 mmHg 64%
    05:00 +21°C° 0 mm 1 mps 762 mmHg 63%
    06:00 +23°C° 0 mm 1 mps 763 mmHg 56%
    07:00 +26°C° 0 mm 1 mps 763 mmHg 49%
    08:00 +28°C° 0 mm 1 mps 763 mmHg 42%
    09:00 +30°C° 0 mm 1 mps 763 mmHg 38%
    10:00 +32°C° 0 mm 1 mps 763 mmHg 33%
    11:00 +34°C° 0 mm 1 mps 762 mmHg 29%
    12:00 +35°C° 0 mm 2 mps 762 mmHg 28%
    13:00 +36°C° 0 mm 3 mps 762 mmHg 27%
    14:00 +36°C° 0 mm 4 mps 761 mmHg 26%
    15:00 +36°C° 0 mm 4 mps 761 mmHg 28%
    16:00 +35°C° 0 mm 4 mps 761 mmHg 30%
    17:00 +34°C° 0 mm 4 mps 761 mmHg 31%
    18:00 +31°C° 0 mm 3 mps 761 mmHg 38%
    19:00 +28°C° 0 mm 3 mps 760 mmHg 45%
    20:00 +26°C° 0 mm 2 mps 760 mmHg 52%
    21:00 +25°C° 0 mm 2 mps 760 mmHg 52%
    22:00 +25°C° 0 mm 1 mps 760 mmHg 52%
    23:00 +24°C° 0 mm 1 mps 761 mmHg 53%

    23 July, Tuesday

    Time Temperature Precipitation Wind Pressure Humidity
    00:00 +24°C° 0 mm 1 mps 760 mmHg 52%
    01:00 +24°C° 0 mm 1 mps 760 mmHg 51%
    02:00 +24°C° 0 mm 1 mps 760 mmHg 50%
    03:00 +24°C° 0 mm 1 mps 760 mmHg 51%
    04:00 +23°C° 0 mm 2 mps 760 mmHg 53%
    05:00 +23°C° 0 mm 2 mps 759 mmHg 55%
    06:00 +25°C° 0 mm 3 mps 760 mmHg 55%
    07:00 +26°C° 0 mm 4 mps 760 mmHg 55%
    08:00 +28°C° 0 mm 4 mps 760 mmHg 55%
    09:00 +29°C° 0 mm 5 mps 760 mmHg 53%
    10:00 +32°C° 0 mm 5 mps 760 mmHg 50%
    11:00 +33°C° 0 mm 5 mps 760 mmHg 47%
    12:00 +32°C° 0.5 mm 6 mps 759 mmHg 53%
    13:00 +30°C° 0.5 mm 6 mps 759 mmHg 59%
    14:00 +29°C° 0.5 mm 7 mps 759 mmHg 65%
    15:00 +27°C° 1.2 mm 7 mps 759 mmHg 70%
    16:00 +26°C° 1.2 mm 7 mps 760 mmHg 75%
    17:00 +24°C° 1.2 mm 7 mps 760 mmHg 80%
    18:00 +23°C° 0.2 mm 5 mps 760 mmHg 79%
    19:00 +22°C° 0.2 mm 4 mps 760 mmHg 78%
    20:00 +21°C° 0.2 mm 3 mps 760 mmHg 78%
    21:00 +21°C° 0 mm 3 mps 761 mmHg 79%
    22:00 +20°C° 0 mm 3 mps 761 mmHg 79%
    23:00 +20°C° 0 mm 2 mps 761 mmHg 80%

    24 July, Wednesday

    Time Temperature Precipitation Wind Pressure Humidity
    00:00 +19°C° 0 mm 2 mps 761 mmHg 81%
    01:00 +18°C° 0 mm 3 mps 760 mmHg 83%
    02:00 +18°C° 0 mm 3 mps 760 mmHg 84%
    03:00 +17°C° 0 mm 2 mps 760 mmHg 83%
    04:00 +17°C° 0 mm 2 mps 760 mmHg 82%
    05:00 +17°C° 0 mm 2 mps 760 mmHg 82%
    06:00 +19°C° 0 mm 2 mps 760 mmHg 74%
    07:00 +21°C° 0 mm 2 mps 760 mmHg 67%
    08:00 +24°C° 0 mm 2 mps 760 mmHg 59%
    09:00 +26°C° 0 mm 3 mps 760 mmHg 53%
    10:00 +27°C° 0 mm 3 mps 760 mmHg 47%
    11:00 +29°C° 0 mm 4 mps 760 mmHg 41%
    12:00 +29°C° 0 mm 3 mps 760 mmHg 41%
    13:00 +29°C° 0 mm 3 mps 760 mmHg 41%
    14:00 +29°C° 0 mm 3 mps 760 mmHg 41%
    15:00 +29°C° 0 mm 3 mps 760 mmHg 42%
    16:00 +29°C° 0 mm 3 mps 759 mmHg 43%
    17:00 +29°C° 0 mm 2 mps 759 mmHg 44%
    18:00 +27°C° 0 mm 2 mps 759 mmHg 50%
    19:00 +26°C° 0 mm 1 mps 760 mmHg 56%
    20:00 +24°C° 0 mm 1 mps 760 mmHg 61%
    21:00 +23°C° 0 mm 1 mps 760 mmHg 63%
    22:00 +23°C° 0 mm 1 mps 760 mmHg 64%
    23:00 +22°C° 0 mm 1 mps 760 mmHg 66%
    Show more